Regional Weather Roundup
Issued by NWS

Home | Current Version | Previous Version | Graphics & Text | Print | Product List | Glossary On
Versions: 1 2 3 4 5 6 7 8 9 10 11 12 13 14 15 16 17 18 19 20 21 22 23 24 25 26 27 28 29 30 31 32 33 34 35 36 37 38 39 40 41 42 43 44 45 46 47 48 49 50
000
ASUS43 KLSX 220710
RWRMO

WEATHER SUMMARY FOR MISSOURI
NATIONAL WEATHER SERVICE SPRINGFIELD MO
200 AM CDT MON MAY 22 2017

NOTE: "FAIR" INDICATES FEW OR NO CLOUDS BELOW 12,000 FEET WITH NO
       SIGNIFICANT WEATHER AND/OR OBSTRUCTIONS TO VISIBILITY.
       CURRENT SKY AND/OR WEATHER CONDITIONS ARE NOT AVAILABLE FOR
       CHILLICOTHE AND FARMINGTON.

MOZ001>031-035>038-043-044-053-054-220800-
...NORTHERN AND WESTERN MISSOURI...

CITY           SKY/WX    TMP DP  RH WIND       PRES   REMARKS
KANSAS CTY INT CLEAR     50  45  83 S9        30.11S
KANSAS C DTWN  CLEAR     57  51  80 CALM      30.11S
LEE`S SUMMIT   CLEAR     57  44  62 S7        30.12F
ST JOSEPH      CLEAR     50  49  96 S5        30.10S
CHILLICOTHE      N/A     48  46  93 CALM      30.12S
KIRKSVILLE     CLEAR     42  41  96 S3        30.11F

$$
MOZ066>068-077>081-088>096-101>105-220800-
...SOUTHWEST MISSOURI...

CITY           SKY/WX    TMP DP  RH WIND       PRES   REMARKS
SPRINGFIELD    CLOUDY    54  49  83 CALM      30.14F
JOPLIN         CLOUDY    57  52  83 S3        30.15S
BRANSON        CLOUDY    54  48  82 CALM      30.16F

$$
MOZ032>034-039>042-045>050-055>058-069>072-220800-
...CENTRAL MISSOURI...

CITY           SKY/WX    TMP DP  RH WIND       PRES   REMARKS
COLUMBIA       PTCLDY    51  47  86 SW5       30.14S
JEFFERSON CITY CLEAR     52  48  86 CALM      30.14S
ROLLA          CLOUDY    50  45  83 SW5       30.14F
SEDALIA        CLEAR     52  50  93 S3        30.14F
WHITEMAN AFB   PTCLDY    50  50 100 S6        30.12F
WARRENSBURG    CLEAR     50  46  87 S5        30.12F
OSAGE BEACH    CLOUDY    48  47  96 CALM      30.16S

$$
MOZ051-052-059>065-220800-
...EAST CENTRAL MISSOURI...

CITY           SKY/WX    TMP DP  RH WIND       PRES   REMARKS
ST LOUIS INTL  PTCLDY    58  48  69 W3        30.14S
SPIRIT OF STL  CLEAR     50  49  96 CALM      30.13S
ST CHARLES     CLEAR     54  53  97 SW3       30.13S

$$
MOZ072>076-082>087-097>100-106>115-220800-
...SOUTH CENTRAL AND SOUTHEAST MISSOURI...

CITY           SKY/WX    TMP DP  RH WIND       PRES   REMARKS
CAPE GIRARDEAU PTCLDY    57  49  74 NW3       30.13S
FARMINGTON     CLOUDY    49  47  93 CALM      30.16S
POPLAR BLUFF   MOCLDY    57  51  80 N6        30.13F
WEST PLAINS    CLOUDY    52  48  86 CALM      30.16F

$$




USA.gov is the U.S. government's official web portal to all federal, state and local government web resources and services.